Simultaneous Nadir Overpasses (SNOs) Predictions

Prediction of SNOs between METOP-B and NOAA-19 Satellite Orbit:

Table of predicted SNOs for the next 14.0 days since TLE Epoch: 10/17/2015
Index Date (METOP-B) Time (METOP-B) Lat,Lon (METOP-B) SZA (METOP-B ) Date (NOAA-19) Time (NOAA-19) Lat,Lon (NOAA-19) SZA (NOAA-19 ) Distance(km) Time Diff (sec)
1 10/26/2015 09:13:21 -75.75,-138.73 91.92 10/26/2015 09:12:12 -75.74,-141.14 91.96 65.96 69
2 10/26/2015 10:04:10 75.33, 27.30 87.66 10/26/2015 10:03:11 75.36, 27.33 87.68 2.86 59
3 10/26/2015 10:54:51 -75.36,-165.30 92.31 10/26/2015 10:54:06 -75.35,-165.38 92.32 2.25 45
4 10/26/2015 11:45:32 75.31, 1.90 87.66 10/26/2015 11:45:13 75.34, 1.88 87.69 2.88 19
5 10/26/2015 12:36:13 -75.34, 169.29 92.31 10/26/2015 12:36:08 -75.33, 169.18 92.31 3.33 5
6
